Hourly Data Report for December 06, 2020

SHEARWATER RCS
NOVA SCOTIA
Current Station Operator: ECCC - MSC

44°37'47.000" N
63°30'48.000" W
24.00 m
8205092
71264
AAW

Download Data

Hourly Data (December 2020)
Hourly Data Report for December 6, 2020
TIME
LST
Temp Definition
°C
Dew Point Definition
°C
Rel Hum Definition
%
Precip. Amount Definition
mm

Wind Dir Definition
10's deg

Wind Spd Definition
km/h
Visibility Definition
km
Stn Press Definition
kPa
Hmdx Definition


Wind Chill Definition


Weather Definition


00:00 12.2 11.6 96 3.3 11 31   98.89     LegendNANA
01:00 12.1 11.6 97 2.0 18 38   98.87     LegendNANA
02:00 11.2 9.3 88 0.0 19 24   98.84     LegendNANA
03:00 11.0 8.5 84 0.0 17 26   98.76     LegendNANA
04:00 9.2 7.1 87 0.0 19 30   98.76     LegendNANA
05:00 8.3 5.7 84 0.0 18 25   98.78     LegendNANA
06:00 7.7 5.5 86 0.0 18 31   98.78     LegendNANA
07:00 7.5 4.7 82 0.2 18 31   98.75     LegendNANA
08:00 7.0 4.4 83 0.0 19 23   98.76     LegendNANA
09:00 7.5 4.3 80 0.0 20 30   98.73     LegendNANA
10:00 7.3 3.7 78 0.0 19 32   98.73     LegendNANA
11:00 7.1 3.1 76 0.2 20 39   98.70     LegendNANA
12:00 7.1 2.5 73 0.0 20 36   98.64     LegendNANA
13:00 6.8 2.5 74 0.0 21 34   98.62     LegendNANA
14:00 6.7 2.6 75 0.0 21 34   98.62     LegendNANA
15:00 6.1 2.0 75 0.0 21 31   98.65     LegendNANA
16:00 5.9 1.5 74 0.0 21 30   98.71     LegendNANA
17:00 5.4 1.3 74 0.0 22 27   98.79     LegendNANA
18:00 4.6 1.0 77 0.0 22 24   98.83     LegendNANA
19:00 4.6 0.6 75 0.0 22 26   98.88     LegendNANA
20:00 4.4 0.3 75 0.0 22 26   98.93     LegendNANA
21:00 4.2 0.5 77 0.0 22 22   98.94     LegendNANA
22:00 3.5 0.5 81 0.0 22 24   98.97     LegendNANA
23:00 3.5 -0.2 76 0.0 23 23   98.98     LegendNANA

Notes on Data Quality.

Legend

  • E = Estimated
  • M = Missing
  • NA = Not Available*
  • [empty] = Indicates an unobserved value
Date modified: